Time,TemperatureF,DewpointF,PressureIn,WindDirection,WindDirectionDegrees,WindSpeedMPH,WindSpeedGustMPH,Humidity,HourlyPrecipIn,Conditions,Clouds,dailyrainin,SolarRadiationWatts/m^2,SoftwareType,DateUTC
2013-05-25 00:01:00,50.2,49.6,29.82,WNW,290,1.0,6.0,98,-99.99,,,-99.99,0.0,meteohub,2013-05-25 04:01:00,
2013-05-25 00:03:00,50.2,49.6,29.81,WNW,300,1.0,6.0,98,-99.99,,,-99.99,0.0,meteohub,2013-05-25 04:03:00,
2013-05-25 00:05:00,50.2,49.6,29.81,WNW,289,0.0,6.0,98,-99.99,,,-99.99,0.0,meteohub,2013-05-25 04:05:00,
2013-05-25 00:10:00,50.0,49.5,29.81,West,274,5.0,8.0,98,-99.99,,,-99.99,0.0,meteohub,2013-05-25 04:10:00,
2013-05-25 00:15:00,50.0,49.5,29.81,West,274,5.0,8.0,98,-99.99,,,-99.99,0.0,meteohub,2013-05-25 04:15:00,
2013-05-25 00:20:00,50.0,49.5,29.81,North,-999,-999.0,5.0,98,-99.99,,,-99.99,0.0,meteohub,2013-05-25 04:20:00,
2013-05-25 00:25:00,50.0,49.5,29.82,WNW,290,1.0,6.0,98,-99.99,,,-99.99,0.0,meteohub,2013-05-25 04:25:00,
2013-05-25 00:30:00,50.0,49.5,29.81,NNW,333,3.0,6.0,98,-99.99,,,-99.99,0.0,meteohub,2013-05-25 04:30:00,
2013-05-25 00:35:00,50.0,49.5,29.81,West,265,0.0,7.0,98,-99.99,,,-99.99,0.0,meteohub,2013-05-25 04:35:00,
2013-05-25 00:40:00,50.0,49.5,29.81,NW,315,1.0,7.0,98,-99.99,,,-99.99,0.0,meteohub,2013-05-25 04:40:00,
2013-05-25 00:45:00,50.0,49.5,29.81,WNW,286,0.0,7.0,98,-99.99,,,-99.99,0.0,meteohub,2013-05-25 04:45:00,
2013-05-25 00:50:00,49.8,49.3,29.81,NW,306,2.0,5.0,98,-99.99,,,-99.99,0.0,meteohub,2013-05-25 04:50:00,
2013-05-25 00:55:00,50.0,49.5,29.81,NW,304,0.0,6.0,98,-99.99,,,-99.99,0.0,meteohub,2013-05-25 04:55:00,
2013-05-25 01:00:00,50.0,49.5,29.82,WNW,289,2.0,6.0,98,-99.99,,,-99.99,0.0,meteohub,2013-05-25 05:00:00,
2013-05-25 01:05:00,50.0,49.5,29.81,NW,311,0.0,4.0,98,-99.99,,,-99.99,0.0,meteohub,2013-05-25 05:05:00,
2013-05-25 01:10:00,49.8,49.3,29.82,NW,311,0.0,3.0,98,-99.99,,,-99.99,0.0,meteohub,2013-05-25 05:10:00,
2013-05-25 01:15:00,49.8,49.3,29.81,WNW,298,0.0,5.0,98,-99.99,,,-99.99,0.0,meteohub,2013-05-25 05:15:00,
2013-05-25 01:20:00,49.8,49.3,29.81,West,267,1.0,6.0,98,-99.99,,,-99.99,0.0,meteohub,2013-05-25 05:20:00,
2013-05-25 01:25:00,49.8,49.3,29.81,West,277,1.0,6.0,98,-99.99,,,-99.99,0.0,meteohub,2013-05-25 05:25:00,
2013-05-25 01:30:00,49.8,49.3,29.81,WNW,298,1.0,4.0,98,-99.99,,,-99.99,0.0,meteohub,2013-05-25 05:30:00,
2013-05-25 01:35:00,49.8,49.3,29.80,WSW,251,0.0,4.0,98,-99.99,,,-99.99,0.0,meteohub,2013-05-25 05:35:00,
2013-05-25 01:40:00,49.8,49.3,29.79,WNW,300,0.0,5.0,98,-99.99,,,-99.99,0.0,meteohub,2013-05-25 05:40:00,
2013-05-25 01:45:00,49.8,49.3,29.80,WNW,293,0.0,8.0,98,-99.99,,,-99.99,0.0,meteohub,2013-05-25 05:45:00,
2013-05-25 01:50:00,49.8,49.3,29.79,WSW,258,0.0,8.0,98,-99.99,,,-99.99,0.0,meteohub,2013-05-25 05:50:00,
2013-05-25 01:55:00,49.8,49.3,29.79,West,267,0.0,8.0,98,-99.99,,,-99.99,0.0,meteohub,2013-05-25 05:55:00,
2013-05-25 02:00:00,49.8,49.3,29.80,West,279,0.0,5.0,98,-99.99,,,-99.99,0.0,meteohub,2013-05-25 06:00:00,
2013-05-25 02:05:00,49.8,49.3,29.80,WNW,290,0.0,5.0,98,-99.99,,,-99.99,0.0,meteohub,2013-05-25 06:05:00,
2013-05-25 02:10:00,49.8,49.3,29.79,NW,309,0.0,4.0,98,-99.99,,,-99.99,0.0,meteohub,2013-05-25 06:10:00,
2013-05-25 02:15:00,49.8,49.3,29.79,NW,317,0.0,4.0,98,-99.99,,,-99.99,0.0,meteohub,2013-05-25 06:15:00,
2013-05-25 02:20:00,49.8,49.5,29.78,NNE,24,1.0,9.0,99,-99.99,,,-99.99,0.0,meteohub,2013-05-25 06:20:00,
2013-05-25 02:25:00,49.8,49.5,29.78,NNW,331,0.0,9.0,99,-99.99,,,-99.99,0.0,meteohub,2013-05-25 06:25:00,
2013-05-25 02:30:00,49.8,49.5,29.78,NE,36,3.0,9.0,99,-99.99,,,-99.99,0.0,meteohub,2013-05-25 06:30:00,
2013-05-25 02:35:00,49.8,49.5,29.78,WNW,285,0.0,6.0,99,-99.99,,,-99.99,0.0,meteohub,2013-05-25 06:35:00,
2013-05-25 02:40:00,49.8,49.5,29.78,NW,311,0.0,6.0,99,-99.99,,,-99.99,0.0,meteohub,2013-05-25 06:40:00,
2013-05-25 02:45:00,49.8,49.5,29.78,WNW,286,1.0,6.0,99,-99.99,,,-99.99,0.0,meteohub,2013-05-25 06:45:00,
2013-05-25 02:50:00,49.8,49.5,29.78,NW,305,1.0,5.0,99,-99.99,,,-99.99,0.0,meteohub,2013-05-25 06:50:00,
2013-05-25 02:55:00,49.8,49.5,29.77,NW,317,0.0,5.0,99,-99.99,,,-99.99,0.0,meteohub,2013-05-25 06:55:00,
2013-05-25 03:00:00,49.8,49.5,29.77,WNW,286,3.0,5.0,99,-99.99,,,-99.99,0.0,meteohub,2013-05-25 07:00:00,
2013-05-25 03:05:00,50.0,49.6,29.77,WNW,290,0.0,8.0,99,-99.99,,,-99.99,0.0,meteohub,2013-05-25 07:05:00,
2013-05-25 03:10:00,50.0,49.6,29.77,WNW,300,1.0,8.0,99,-99.99,,,-99.99,0.0,meteohub,2013-05-25 07:10:00,
2013-05-25 03:15:00,50.0,49.6,29.77,West,280,4.0,4.0,99,-99.99,,,-99.99,0.0,meteohub,2013-05-25 07:15:00,
2013-05-25 03:20:00,50.2,49.8,29.77,WSW,257,0.0,5.0,99,-99.99,,,-99.99,0.0,meteohub,2013-05-25 07:20:00,
2013-05-25 03:25:00,50.2,49.8,29.77,WNW,300,0.0,5.0,99,-99.99,,,-99.99,0.0,meteohub,2013-05-25 07:25:00,
2013-05-25 03:30:00,50.2,49.8,29.76,WNW,300,0.0,5.0,99,-99.99,,,-99.99,0.0,meteohub,2013-05-25 07:30:00,
2013-05-25 03:35:00,50.2,49.8,29.76,West,266,0.0,6.0,99,-99.99,,,-99.99,0.0,meteohub,2013-05-25 07:35:00,
2013-05-25 03:40:00,50.2,49.8,29.76,NW,311,0.0,6.0,99,-99.99,,,-99.99,0.0,meteohub,2013-05-25 07:40:00,
2013-05-25 03:45:00,50.2,49.8,29.77,NW,309,0.0,6.0,99,-99.99,,,-99.99,0.0,meteohub,2013-05-25 07:45:00,
2013-05-25 03:50:00,50.2,49.8,29.77,WNW,301,0.0,6.0,99,-99.99,,,-99.99,0.0,meteohub,2013-05-25 07:50:00,
2013-05-25 03:55:00,50.2,49.8,29.76,WNW,291,0.0,3.0,99,-99.99,,,-99.99,0.0,meteohub,2013-05-25 07:55:00,
2013-05-25 04:00:00,50.2,49.8,29.77,WNW,288,0.0,3.0,99,-99.99,,,-99.99,0.0,meteohub,2013-05-25 08:00:00,
2013-05-25 04:05:00,50.2,49.8,29.76,WNW,294,1.0,3.0,99,-99.99,,,-99.99,0.0,meteohub,2013-05-25 08:05:00,
2013-05-25 04:10:00,50.4,50.0,29.77,NE,36,1.0,2.0,99,-99.99,,,-99.99,0.0,meteohub,2013-05-25 08:10:00,
2013-05-25 04:15:00,50.4,50.0,29.77,ENE,59,0.0,3.0,99,-99.99,,,-99.99,0.0,meteohub,2013-05-25 08:15:00,
2013-05-25 04:20:00,50.4,50.0,29.77,North,351,1.0,3.0,99,-99.99,,,-99.99,0.0,meteohub,2013-05-25 08:20:00,
2013-05-25 04:25:00,50.4,50.0,29.77,West,268,0.0,3.0,99,-99.99,,,-99.99,0.0,meteohub,2013-05-25 08:25:00,
2013-05-25 04:30:00,50.4,50.4,29.78,ENE,60,1.0,5.0,100,-99.99,,,-99.99,0.0,meteohub,2013-05-25 08:30:00,
2013-05-25 04:35:00,50.5,50.5,29.78,North,5,0.0,5.0,100,-99.99,,,-99.99,0.0,meteohub,2013-05-25 08:35:00,
2013-05-25 04:40:00,50.5,50.5,29.78,ENE,74,0.0,4.0,100,-99.99,,,-99.99,0.0,meteohub,2013-05-25 08:40:00,
2013-05-25 04:45:00,50.5,50.5,29.77,ENE,61,1.0,6.0,100,-99.99,,,-99.99,0.0,meteohub,2013-05-25 08:45:00,
2013-05-25 04:50:00,50.5,50.5,29.77,NE,48,0.0,6.0,100,-99.99,,,-99.99,0.0,meteohub,2013-05-25 08:50:00,
2013-05-25 04:55:00,50.5,50.5,29.77,West,271,2.0,6.0,100,-99.99,,,-99.99,0.0,meteohub,2013-05-25 08:55:00,
2013-05-25 05:00:00,50.5,50.5,29.77,NNW,328,0.0,6.0,100,-99.99,,,-99.99,0.0,meteohub,2013-05-25 09:00:00,
2013-05-25 05:05:00,50.5,50.5,29.78,NNW,342,0.0,3.0,100,-99.99,,,-99.99,5.0,meteohub,2013-05-25 09:05:00,
2013-05-25 05:10:00,50.5,50.5,29.77,ENE,67,0.0,3.0,100,-99.99,,,-99.99,5.0,meteohub,2013-05-25 09:10:00,
2013-05-25 05:15:00,50.7,50.7,29.78,West,269,1.0,3.0,100,-99.99,,,-99.99,0.0,meteohub,2013-05-25 09:15:00,
2013-05-25 05:20:00,50.7,50.7,29.78,WNW,294,1.0,4.0,100,-99.99,,,-99.99,0.0,meteohub,2013-05-25 09:20:00,
2013-05-25 05:25:00,50.7,50.7,29.78,WNW,296,0.0,4.0,100,-99.99,,,-99.99,0.0,meteohub,2013-05-25 09:25:00,
2013-05-25 05:30:00,50.7,50.7,29.78,North,355,0.0,2.0,100,-99.99,,,-99.99,0.0,meteohub,2013-05-25 09:30:00,
2013-05-25 05:35:00,50.7,50.7,29.77,WNW,286,0.0,3.0,100,-99.99,,,-99.99,5.0,meteohub,2013-05-25 09:35:00,
2013-05-25 05:40:00,50.7,50.7,29.77,West,271,1.0,3.0,100,-99.99,,,-99.99,5.0,meteohub,2013-05-25 09:40:00,
2013-05-25 05:45:00,50.7,50.7,29.77,WNW,294,0.0,3.0,100,-99.99,,,-99.99,5.0,meteohub,2013-05-25 09:45:00,
2013-05-25 05:50:00,50.7,50.7,29.78,WNW,299,0.0,6.0,100,-99.99,,,-99.99,5.0,meteohub,2013-05-25 09:50:00,
2013-05-25 05:55:00,50.7,50.7,29.78,WNW,295,0.0,6.0,100,-99.99,,,-99.99,0.0,meteohub,2013-05-25 09:55:00,
2013-05-25 06:00:00,50.7,50.7,29.78,NW,306,1.0,6.0,100,-99.99,,,-99.99,0.0,meteohub,2013-05-25 10:00:00,
2013-05-25 06:05:00,50.7,50.7,29.78,West,267,0.0,3.0,100,-99.99,,,-99.99,0.0,meteohub,2013-05-25 10:05:00,
2013-05-25 06:10:00,50.7,50.7,29.78,WNW,290,0.0,3.0,100,-99.99,,,-99.99,0.0,meteohub,2013-05-25 10:10:00,
2013-05-25 06:15:00,50.7,50.7,29.78,NNW,345,0.0,3.0,100,-99.99,,,-99.99,0.0,meteohub,2013-05-25 10:15:00,
2013-05-25 06:20:00,50.7,50.7,29.78,West,271,1.0,3.0,100,-99.99,,,-99.99,0.0,meteohub,2013-05-25 10:20:00,
2013-05-25 06:25:00,50.9,50.9,29.78,NE,37,1.0,2.0,100,-99.99,,,-99.99,0.0,meteohub,2013-05-25 10:25:00,
2013-05-25 06:30:00,50.9,50.9,29.78,NNE,21,0.0,3.0,100,-99.99,,,-99.99,5.0,meteohub,2013-05-25 10:30:00,
2013-05-25 06:35:00,50.9,50.9,29.77,NNW,330,0.0,3.0,100,-99.99,,,-99.99,7.0,meteohub,2013-05-25 10:35:00,
2013-05-25 06:40:00,50.9,50.9,29.77,NE,35,1.0,4.0,100,-99.99,,,-99.99,11.0,meteohub,2013-05-25 10:40:00,
2013-05-25 06:45:00,50.9,50.9,29.77,NNW,346,1.0,6.0,100,-99.99,,,-99.99,16.0,meteohub,2013-05-25 10:45:00,
2013-05-25 06:50:00,50.9,50.9,29.76,NNE,13,0.0,6.0,100,-99.99,,,-99.99,33.0,meteohub,2013-05-25 10:50:00,
2013-05-25 06:55:00,51.1,51.1,29.76,WNW,301,2.0,6.0,100,-99.99,,,-99.99,37.0,meteohub,2013-05-25 10:55:00,
2013-05-25 07:00:00,51.1,51.1,29.76,WNW,288,3.0,5.0,100,-99.99,,,-99.99,35.0,meteohub,2013-05-25 11:00:00,
2013-05-25 07:05:00,51.1,51.1,29.76,NNE,16,1.0,4.0,100,-99.99,,,-99.99,37.0,meteohub,2013-05-25 11:05:00,
2013-05-25 07:10:00,51.1,51.1,29.75,NE,43,0.0,4.0,100,-99.99,,,-99.99,33.0,meteohub,2013-05-25 11:10:00,
2013-05-25 07:15:00,51.1,51.1,29.75,NNW,331,0.0,6.0,100,-99.99,,,-99.99,40.0,meteohub,2013-05-25 11:15:00,
2013-05-25 07:20:00,51.1,51.1,29.75,ENE,67,2.0,9.0,100,-99.99,,,-99.99,39.0,meteohub,2013-05-25 11:20:00,
2013-05-25 07:25:00,51.1,51.1,29.76,ENE,74,1.0,9.0,100,-99.99,,,-99.99,40.0,meteohub,2013-05-25 11:25:00,
2013-05-25 07:30:00,51.1,51.1,29.76,NW,315,0.0,8.0,100,-99.99,,,-99.99,44.0,meteohub,2013-05-25 11:30:00,
2013-05-25 07:35:00,51.1,51.1,29.76,ENE,72,1.0,8.0,100,-99.99,,,-99.99,25.0,meteohub,2013-05-25 11:35:00,
2013-05-25 07:40:00,51.1,51.1,29.76,WNW,293,1.0,6.0,100,-99.99,,,-99.99,26.0,meteohub,2013-05-25 11:40:00,
2013-05-25 07:45:00,51.1,51.1,29.76,West,271,1.0,6.0,100,-99.99,,,-99.99,28.0,meteohub,2013-05-25 11:45:00,
2013-05-25 07:50:00,51.1,51.1,29.76,WSW,239,0.0,6.0,100,-99.99,,,-99.99,32.0,meteohub,2013-05-25 11:50:00,
2013-05-25 07:55:00,51.1,51.1,29.76,NE,43,0.0,7.0,100,-99.99,,,-99.99,25.0,meteohub,2013-05-25 11:55:00,
2013-05-25 08:00:00,51.1,51.1,29.76,West,277,1.0,7.0,100,-99.99,,,-99.99,25.0,meteohub,2013-05-25 12:00:00,
2013-05-25 08:05:00,51.1,51.1,29.75,NE,56,0.0,7.0,100,-99.99,,,-99.99,33.0,meteohub,2013-05-25 12:05:00,
2013-05-25 08:10:00,51.1,51.1,29.75,NW,318,1.0,4.0,100,-99.99,,,-99.99,47.0,meteohub,2013-05-25 12:10:00,
2013-05-25 08:15:00,51.1,51.1,29.75,NE,53,1.0,4.0,100,-99.99,,,-99.99,51.0,meteohub,2013-05-25 12:15:00,
2013-05-25 08:20:00,51.1,51.1,29.75,ENE,63,1.0,4.0,100,-99.99,,,-99.99,54.0,meteohub,2013-05-25 12:20:00,
2013-05-25 08:25:00,51.1,51.1,29.76,NE,56,2.0,4.0,100,-99.99,,,-99.99,51.0,meteohub,2013-05-25 12:25:00,
2013-05-25 08:30:00,51.1,51.1,29.75,NW,308,0.0,6.0,100,-99.99,,,-99.99,49.0,meteohub,2013-05-25 12:30:00,
2013-05-25 08:35:00,51.1,51.1,29.75,NNW,329,2.0,6.0,100,-99.99,,,-99.99,47.0,meteohub,2013-05-25 12:35:00,
2013-05-25 08:40:00,51.1,51.1,29.75,East,90,0.0,8.0,100,-99.99,,,-99.99,49.0,meteohub,2013-05-25 12:40:00,
2013-05-25 08:46:00,51.1,51.1,29.75,NNE,19,0.0,8.0,100,-99.99,,,-99.99,62.0,meteohub,2013-05-25 12:46:00,
2013-05-25 08:51:00,51.1,51.1,29.75,NE,54,0.0,8.0,100,-99.99,,,-99.99,76.0,meteohub,2013-05-25 12:51:00,
2013-05-25 08:56:00,51.1,51.1,29.75,NNE,24,0.0,5.0,100,-99.99,,,-99.99,49.0,meteohub,2013-05-25 12:56:00,
2013-05-25 09:01:00,51.1,51.1,29.75,ENE,62,3.0,5.0,100,-99.99,,,-99.99,54.0,meteohub,2013-05-25 13:01:00,
2013-05-25 09:06:00,51.1,51.1,29.75,WNW,298,2.0,8.0,100,-99.99,,,-99.99,72.0,meteohub,2013-05-25 13:06:00,
2013-05-25 09:11:00,51.3,51.3,29.75,WNW,292,0.0,8.0,100,-99.99,,,-99.99,65.0,meteohub,2013-05-25 13:11:00,
2013-05-25 09:16:00,51.1,51.1,29.75,NE,42,1.0,5.0,100,-99.99,,,-99.99,58.0,meteohub,2013-05-25 13:16:00,
2013-05-25 09:21:00,51.1,51.1,29.74,NE,50,2.0,5.0,100,-99.99,,,-99.99,70.0,meteohub,2013-05-25 13:21:00,
2013-05-25 09:26:00,51.1,51.1,29.74,NE,39,0.0,5.0,100,-99.99,,,-99.99,60.0,meteohub,2013-05-25 13:26:00,
2013-05-25 09:31:00,51.1,51.1,29.74,NNE,32,3.0,5.0,100,-99.99,,,-99.99,65.0,meteohub,2013-05-25 13:31:00,
2013-05-25 09:36:00,51.1,50.7,29.74,NNE,28,1.0,8.0,99,-99.99,,,-99.99,60.0,meteohub,2013-05-25 13:36:00,
2013-05-25 09:41:00,51.1,50.7,29.75,NNE,22,3.0,9.0,99,-99.99,,,-99.99,63.0,meteohub,2013-05-25 13:41:00,
2013-05-25 09:46:00,50.9,50.5,29.75,NE,40,1.0,11.0,99,-99.99,,,-99.99,70.0,meteohub,2013-05-25 13:46:00,
2013-05-25 09:51:00,50.9,50.5,29.75,NW,306,0.0,11.0,99,-99.99,,,-99.99,49.0,meteohub,2013-05-25 13:51:00,
2013-05-25 09:56:00,50.9,50.5,29.75,East,87,1.0,11.0,99,-99.99,,,-99.99,37.0,meteohub,2013-05-25 13:56:00,
2013-05-25 10:01:00,50.9,50.5,29.75,NE,54,1.0,7.0,99,-99.99,,,-99.99,47.0,meteohub,2013-05-25 14:01:00,
2013-05-25 10:06:00,50.9,50.5,29.76,NNE,18,0.0,5.0,99,-99.99,,,-99.99,51.0,meteohub,2013-05-25 14:06:00,
2013-05-25 10:11:00,50.9,50.5,29.75,NE,42,3.0,5.0,99,-99.99,,,-99.99,70.0,meteohub,2013-05-25 14:11:00,
2013-05-25 10:16:00,50.9,50.5,29.75,NE,40,0.0,4.0,99,-99.99,,,-99.99,81.0,meteohub,2013-05-25 14:16:00,
2013-05-25 10:21:00,50.7,50.4,29.75,NE,41,1.0,4.0,99,-99.99,,,-99.99,60.0,meteohub,2013-05-25 14:21:00,
2013-05-25 10:26:00,50.5,50.2,29.75,ENE,63,0.0,8.0,99,-99.99,,,-99.99,125.0,meteohub,2013-05-25 14:26:00,
2013-05-25 10:31:00,50.5,50.2,29.74,ENE,70,5.0,10.0,99,-99.99,,,-99.99,153.0,meteohub,2013-05-25 14:31:00,
2013-05-25 10:36:00,50.5,50.2,29.75,NNE,32,0.0,10.0,99,-99.99,,,-99.99,104.0,meteohub,2013-05-25 14:36:00,
2013-05-25 10:41:00,50.5,50.2,29.75,NNE,32,4.0,8.0,99,-99.99,,,-99.99,84.0,meteohub,2013-05-25 14:41:00,
2013-05-25 10:46:00,50.5,50.2,29.74,NE,39,2.0,8.0,99,-99.99,,,-99.99,86.0,meteohub,2013-05-25 14:46:00,
2013-05-25 10:51:00,50.5,50.2,29.74,NE,47,0.0,8.0,99,-99.99,,,-99.99,84.0,meteohub,2013-05-25 14:51:00,
2013-05-25 10:56:00,50.5,50.2,29.74,NE,36,1.0,8.0,99,-99.99,,,-99.99,102.0,meteohub,2013-05-25 14:56:00,
2013-05-25 11:01:00,50.5,50.2,29.74,ENE,63,1.0,4.0,99,-99.99,,,-99.99,105.0,meteohub,2013-05-25 15:01:00,
2013-05-25 11:06:00,50.7,50.7,29.75,NE,43,1.0,5.0,100,-99.99,,,-99.99,70.0,meteohub,2013-05-25 15:06:00,
2013-05-25 11:11:00,50.7,50.4,29.74,NW,305,0.0,7.0,99,-99.99,,,-99.99,102.0,meteohub,2013-05-25 15:11:00,
2013-05-25 11:16:00,50.5,50.2,29.75,NNW,340,0.0,7.0,99,-99.99,,,-99.99,62.0,meteohub,2013-05-25 15:16:00,
2013-05-25 11:21:00,50.5,50.2,29.75,NNE,25,0.0,7.0,99,-99.99,,,-99.99,77.0,meteohub,2013-05-25 15:21:00,
2013-05-25 11:26:00,50.5,50.2,29.75,NE,51,5.0,6.0,99,-99.99,,,-99.99,54.0,meteohub,2013-05-25 15:26:00,
2013-05-25 11:31:00,50.4,50.0,29.75,NE,39,0.0,6.0,99,-99.99,,,-99.99,77.0,meteohub,2013-05-25 15:31:00,
2013-05-25 11:36:00,50.4,50.0,29.74,NE,44,1.0,6.0,99,-99.99,,,-99.99,70.0,meteohub,2013-05-25 15:36:00,
2013-05-25 11:41:00,50.4,50.0,29.74,NE,42,1.0,6.0,99,-99.99,,,-99.99,93.0,meteohub,2013-05-25 15:41:00,
2013-05-25 11:46:00,50.4,50.0,29.73,ENE,60,2.0,4.0,99,-99.99,,,-99.99,107.0,meteohub,2013-05-25 15:46:00,
2013-05-25 11:51:00,50.5,50.2,29.73,WNW,286,2.0,8.0,99,-99.99,,,-99.99,185.0,meteohub,2013-05-25 15:51:00,
2013-05-25 11:56:00,50.7,50.4,29.73,ENE,58,0.0,8.0,99,-99.99,,,-99.99,160.0,meteohub,2013-05-25 15:56:00,
2013-05-25 12:01:00,50.7,50.4,29.73,ENE,71,2.0,9.0,99,-99.99,,,-99.99,114.0,meteohub,2013-05-25 16:01:00,
2013-05-25 12:06:00,50.7,50.4,29.73,North,10,2.0,9.0,99,-99.99,,,-99.99,114.0,meteohub,2013-05-25 16:06:00,
2013-05-25 12:11:00,50.7,50.4,29.73,NE,34,2.0,9.0,99,-99.99,,,-99.99,137.0,meteohub,2013-05-25 16:11:00,
2013-05-25 12:16:00,50.9,50.5,29.73,WNW,284,1.0,8.0,99,-99.99,,,-99.99,130.0,meteohub,2013-05-25 16:16:00,
2013-05-25 12:21:00,51.1,50.7,29.73,NNE,18,1.0,7.0,99,-99.99,,,-99.99,148.0,meteohub,2013-05-25 16:21:00,
2013-05-25 12:26:00,50.7,50.4,29.73,NE,46,1.0,8.0,99,-99.99,,,-99.99,102.0,meteohub,2013-05-25 16:26:00,
2013-05-25 12:31:00,50.7,50.4,29.73,ENE,65,1.0,8.0,99,-99.99,,,-99.99,90.0,meteohub,2013-05-25 16:31:00,
2013-05-25 12:36:00,50.7,50.4,29.73,NNE,22,3.0,9.0,99,-99.99,,,-99.99,120.0,meteohub,2013-05-25 16:36:00,
2013-05-25 12:41:00,50.7,50.4,29.72,NE,34,3.0,9.0,99,-99.99,,,-99.99,104.0,meteohub,2013-05-25 16:41:00,
2013-05-25 12:46:00,50.5,50.2,29.73,NE,51,6.0,9.0,99,-99.99,,,-99.99,90.0,meteohub,2013-05-25 16:46:00,
2013-05-25 12:51:00,50.4,50.0,29.73,ENE,57,3.0,11.0,99,-99.99,,,-99.99,102.0,meteohub,2013-05-25 16:51:00,
2013-05-25 12:56:00,50.4,50.0,29.73,ENE,57,5.0,11.0,99,-99.99,,,-99.99,95.0,meteohub,2013-05-25 16:56:00,
2013-05-25 13:01:00,50.4,50.0,29.72,ENE,71,1.0,11.0,99,-99.99,,,-99.99,109.0,meteohub,2013-05-25 17:01:00,
2013-05-25 13:06:00,50.4,50.0,29.72,NNE,30,0.0,10.0,99,-99.99,,,-99.99,88.0,meteohub,2013-05-25 17:06:00,
2013-05-25 13:11:00,50.4,50.0,29.72,NNE,22,1.0,9.0,99,-99.99,,,-99.99,69.0,meteohub,2013-05-25 17:11:00,
2013-05-25 13:16:00,50.2,49.8,29.72,NE,51,1.0,8.0,99,-99.99,,,-99.99,81.0,meteohub,2013-05-25 17:16:00,
2013-05-25 13:21:00,50.4,50.0,29.71,NNE,31,2.0,8.0,99,-99.99,,,-99.99,77.0,meteohub,2013-05-25 17:21:00,
2013-05-25 13:26:00,50.4,50.0,29.71,WNW,303,2.0,8.0,99,-99.99,,,-99.99,109.0,meteohub,2013-05-25 17:26:00,
2013-05-25 13:31:00,50.4,50.0,29.71,NE,42,1.0,8.0,99,-99.99,,,-99.99,65.0,meteohub,2013-05-25 17:31:00,
2013-05-25 13:36:00,50.4,50.0,29.70,NE,46,2.0,12.0,99,-99.99,,,-99.99,98.0,meteohub,2013-05-25 17:36:00,
2013-05-25 13:41:00,50.4,50.0,29.70,NNE,23,0.0,12.0,99,-99.99,,,-99.99,98.0,meteohub,2013-05-25 17:41:00,
2013-05-25 13:46:00,50.4,50.0,29.70,NNE,28,0.0,10.0,99,-99.99,,,-99.99,88.0,meteohub,2013-05-25 17:46:00,
2013-05-25 13:51:00,50.4,50.0,29.70,NE,49,1.0,10.0,99,-99.99,,,-99.99,83.0,meteohub,2013-05-25 17:51:00,
2013-05-25 13:56:00,50.4,50.0,29.70,NNE,19,0.0,10.0,99,-99.99,,,-99.99,100.0,meteohub,2013-05-25 17:56:00,
2013-05-25 14:01:00,50.5,50.2,29.70,ENE,72,2.0,11.0,99,-99.99,,,-99.99,105.0,meteohub,2013-05-25 18:01:00,
2013-05-25 14:06:00,50.5,50.2,29.70,NNE,26,2.0,11.0,99,-99.99,,,-99.99,104.0,meteohub,2013-05-25 18:06:00,
2013-05-25 14:11:00,50.5,50.2,29.70,NNE,30,0.0,11.0,99,-99.99,,,-99.99,111.0,meteohub,2013-05-25 18:11:00,
2013-05-25 14:16:00,50.7,50.4,29.70,ENE,65,2.0,7.0,99,-99.99,,,-99.99,162.0,meteohub,2013-05-25 18:16:00,
2013-05-25 14:21:00,50.7,50.4,29.70,North,5,1.0,7.0,99,-99.99,,,-99.99,127.0,meteohub,2013-05-25 18:21:00,
2013-05-25 14:26:00,50.9,50.5,29.70,NW,324,0.0,9.0,99,-99.99,,,-99.99,162.0,meteohub,2013-05-25 18:26:00,
2013-05-25 14:31:00,50.9,50.5,29.70,NE,51,0.0,9.0,99,-99.99,,,-99.99,102.0,meteohub,2013-05-25 18:31:00,
2013-05-25 14:36:00,51.1,50.7,29.70,NE,47,5.0,9.0,99,-99.99,,,-99.99,100.0,meteohub,2013-05-25 18:36:00,
2013-05-25 14:41:00,51.1,50.7,29.69,NNE,33,0.0,7.0,99,-99.99,,,-99.99,90.0,meteohub,2013-05-25 18:41:00,
2013-05-25 14:46:00,50.9,50.5,29.69,NE,54,0.0,5.0,99,-99.99,,,-99.99,65.0,meteohub,2013-05-25 18:46:00,
2013-05-25 14:51:00,51.1,50.7,29.69,NW,325,0.0,5.0,99,-99.99,,,-99.99,67.0,meteohub,2013-05-25 18:51:00,
2013-05-25 14:56:00,51.1,50.7,29.69,ENE,63,0.0,5.0,99,-99.99,,,-99.99,76.0,meteohub,2013-05-25 18:56:00,
2013-05-25 15:01:00,51.1,50.7,29.70,West,269,0.0,5.0,99,-99.99,,,-99.99,76.0,meteohub,2013-05-25 19:01:00,
2013-05-25 15:06:00,51.3,50.9,29.70,NE,49,2.0,5.0,99,-99.99,,,-99.99,65.0,meteohub,2013-05-25 19:06:00,
2013-05-25 15:11:00,51.3,50.9,29.70,ENE,69,0.0,5.0,99,-99.99,,,-99.99,65.0,meteohub,2013-05-25 19:11:00,
2013-05-25 15:16:00,51.3,50.9,29.70,NNE,19,0.0,4.0,99,-99.99,,,-99.99,42.0,meteohub,2013-05-25 19:16:00,
2013-05-25 15:21:00,51.3,50.9,29.70,ENE,63,0.0,4.0,99,-99.99,,,-99.99,44.0,meteohub,2013-05-25 19:21:00,
2013-05-25 15:26:00,51.3,50.9,29.70,NE,38,1.0,3.0,99,-99.99,,,-99.99,54.0,meteohub,2013-05-25 19:26:00,
2013-05-25 15:31:00,51.3,50.9,29.70,NE,53,0.0,3.0,99,-99.99,,,-99.99,83.0,meteohub,2013-05-25 19:31:00,
2013-05-25 15:36:00,51.4,51.1,29.70,NNE,20,3.0,3.0,99,-99.99,,,-99.99,76.0,meteohub,2013-05-25 19:36:00,
2013-05-25 15:41:00,51.4,51.1,29.70,ENE,57,2.0,4.0,99,-99.99,,,-99.99,65.0,meteohub,2013-05-25 19:41:00,
2013-05-25 15:46:00,51.4,51.1,29.70,NE,38,1.0,4.0,99,-99.99,,,-99.99,77.0,meteohub,2013-05-25 19:46:00,
2013-05-25 15:51:00,51.4,51.1,29.70,NE,51,2.0,4.0,99,-99.99,,,-99.99,54.0,meteohub,2013-05-25 19:51:00,
2013-05-25 15:56:00,51.4,51.1,29.70,NE,49,0.0,5.0,99,-99.99,,,-99.99,63.0,meteohub,2013-05-25 19:56:00,
2013-05-25 16:01:00,51.4,51.1,29.70,NNE,30,1.0,5.0,99,-99.99,,,-99.99,70.0,meteohub,2013-05-25 20:01:00,
2013-05-25 16:06:00,51.4,51.1,29.70,NE,46,3.0,5.0,99,-99.99,,,-99.99,54.0,meteohub,2013-05-25 20:06:00,
2013-05-25 16:11:00,51.4,51.1,29.71,NNE,30,0.0,5.0,99,-99.99,,,-99.99,32.0,meteohub,2013-05-25 20:11:00,
2013-05-25 16:16:00,51.4,51.1,29.71,NNE,31,0.0,5.0,99,-99.99,,,-99.99,44.0,meteohub,2013-05-25 20:16:00,
2013-05-25 16:21:00,51.4,51.1,29.71,NNE,31,0.0,4.0,99,-99.99,,,-99.99,51.0,meteohub,2013-05-25 20:21:00,
2013-05-25 16:26:00,51.6,51.6,29.70,NNE,31,0.0,2.0,100,-99.99,,,-99.99,63.0,meteohub,2013-05-25 20:26:00,
2013-05-25 16:31:00,51.6,51.6,29.70,NE,40,0.0,2.0,100,-99.99,,,-99.99,67.0,meteohub,2013-05-25 20:31:00,
2013-05-25 16:36:00,51.6,51.6,29.70,NE,45,0.0,2.0,100,-99.99,,,-99.99,86.0,meteohub,2013-05-25 20:36:00,
2013-05-25 16:41:00,51.6,51.3,29.70,NE,43,0.0,3.0,99,-99.99,,,-99.99,69.0,meteohub,2013-05-25 20:41:00,
2013-05-25 16:46:00,51.8,51.8,29.71,ENE,76,0.0,3.0,100,-99.99,,,-99.99,62.0,meteohub,2013-05-25 20:46:00,
2013-05-25 16:51:00,51.6,51.3,29.71,ENE,74,1.0,3.0,99,-99.99,,,-99.99,42.0,meteohub,2013-05-25 20:51:00,
2013-05-25 16:56:00,51.6,51.3,29.71,ENE,66,0.0,2.0,99,-99.99,,,-99.99,53.0,meteohub,2013-05-25 20:56:00,
2013-05-25 17:01:00,51.4,51.1,29.70,ENE,65,0.0,3.0,99,-99.99,,,-99.99,51.0,meteohub,2013-05-25 21:01:00,
2013-05-25 17:06:00,51.4,51.1,29.71,ENE,63,0.0,3.0,99,-99.99,,,-99.99,46.0,meteohub,2013-05-25 21:06:00,
2013-05-25 17:11:00,51.4,51.1,29.71,ENE,63,0.0,3.0,99,-99.99,,,-99.99,44.0,meteohub,2013-05-25 21:11:00,
2013-05-25 17:16:00,51.4,51.1,29.71,East,88,0.0,3.0,99,-99.99,,,-99.99,42.0,meteohub,2013-05-25 21:16:00,
2013-05-25 17:21:00,51.3,50.9,29.71,ENE,75,3.0,3.0,99,-99.99,,,-99.99,42.0,meteohub,2013-05-25 21:21:00,
2013-05-25 17:26:00,51.3,50.9,29.71,ENE,68,1.0,3.0,99,-99.99,,,-99.99,39.0,meteohub,2013-05-25 21:26:00,
2013-05-25 17:31:00,51.3,50.9,29.71,ENE,68,0.0,3.0,99,-99.99,,,-99.99,37.0,meteohub,2013-05-25 21:31:00,
2013-05-25 17:36:00,51.3,50.9,29.71,ENE,66,0.0,3.0,99,-99.99,,,-99.99,44.0,meteohub,2013-05-25 21:36:00,
2013-05-25 17:41:00,51.1,50.7,29.71,ENE,66,0.0,2.0,99,-99.99,,,-99.99,25.0,meteohub,2013-05-25 21:41:00,
2013-05-25 17:46:00,51.1,50.7,29.71,ENE,66,1.0,2.0,99,-99.99,,,-99.99,32.0,meteohub,2013-05-25 21:46:00,
2013-05-25 17:51:00,51.1,50.7,29.71,ENE,66,0.0,2.0,99,-99.99,,,-99.99,32.0,meteohub,2013-05-25 21:51:00,
2013-05-25 17:56:00,51.1,50.7,29.71,ENE,66,0.0,2.0,99,-99.99,,,-99.99,49.0,meteohub,2013-05-25 21:56:00,
2013-05-25 18:01:00,50.7,50.4,29.71,NE,49,0.0,2.0,99,-99.99,,,-99.99,28.0,meteohub,2013-05-25 22:01:00,
2013-05-25 18:06:00,50.7,50.4,29.71,ENE,63,1.0,2.0,99,-99.99,,,-99.99,21.0,meteohub,2013-05-25 22:06:00,
2013-05-25 18:11:00,50.5,50.2,29.71,ENE,59,0.0,2.0,99,-99.99,,,-99.99,25.0,meteohub,2013-05-25 22:11:00,
2013-05-25 18:16:00,50.5,50.2,29.72,ENE,59,2.0,2.0,99,-99.99,,,-99.99,12.0,meteohub,2013-05-25 22:16:00,
2013-05-25 18:21:00,50.5,50.2,29.71,ENE,65,0.0,2.0,99,-99.99,,,-99.99,11.0,meteohub,2013-05-25 22:21:00,
2013-05-25 18:26:00,50.4,50.0,29.71,ENE,57,0.0,2.0,99,-99.99,,,-99.99,12.0,meteohub,2013-05-25 22:26:00,
2013-05-25 18:31:00,50.4,50.0,29.71,ENE,63,0.0,3.0,99,-99.99,,,-99.99,12.0,meteohub,2013-05-25 22:31:00,
2013-05-25 18:36:00,50.2,49.8,29.72,NE,52,1.0,3.0,99,-99.99,,,-99.99,12.0,meteohub,2013-05-25 22:36:00,
2013-05-25 18:41:00,50.0,49.6,29.72,NE,54,0.0,3.0,99,-99.99,,,-99.99,9.0,meteohub,2013-05-25 22:41:00,
2013-05-25 18:46:00,50.0,49.6,29.72,NE,54,0.0,3.0,99,-99.99,,,-99.99,11.0,meteohub,2013-05-25 22:46:00,
2013-05-25 18:51:00,50.0,49.6,29.72,ENE,74,1.0,4.0,99,-99.99,,,-99.99,12.0,meteohub,2013-05-25 22:51:00,
2013-05-25 18:56:00,49.8,49.5,29.72,ENE,60,0.0,4.0,99,-99.99,,,-99.99,16.0,meteohub,2013-05-25 22:56:00,
2013-05-25 19:01:00,50.0,49.6,29.72,ENE,60,0.0,4.0,99,-99.99,,,-99.99,12.0,meteohub,2013-05-25 23:01:00,
2013-05-25 19:06:00,50.0,49.6,29.72,NE,52,0.0,3.0,99,-99.99,,,-99.99,9.0,meteohub,2013-05-25 23:06:00,
2013-05-25 19:11:00,50.0,50.0,29.72,NE,52,0.0,3.0,100,-99.99,,,-99.99,9.0,meteohub,2013-05-25 23:11:00,
2013-05-25 19:16:00,50.0,50.0,29.72,ENE,61,0.0,3.0,100,-99.99,,,-99.99,9.0,meteohub,2013-05-25 23:16:00,
2013-05-25 19:21:00,50.0,50.0,29.72,ENE,61,1.0,2.0,100,-99.99,,,-99.99,7.0,meteohub,2013-05-25 23:21:00,
2013-05-25 19:26:00,50.0,50.0,29.72,ENE,61,0.0,2.0,100,-99.99,,,-99.99,5.0,meteohub,2013-05-25 23:26:00,
2013-05-25 19:31:00,49.8,49.8,29.72,ENE,63,0.0,2.0,100,-99.99,,,-99.99,5.0,meteohub,2013-05-25 23:31:00,
2013-05-25 19:36:00,49.8,49.8,29.72,ENE,63,0.0,2.0,100,-99.99,,,-99.99,5.0,meteohub,2013-05-25 23:36:00,
2013-05-25 19:41:00,49.6,49.5,29.72,ENE,63,0.0,2.0,99,-99.99,,,-99.99,0.0,meteohub,2013-05-25 23:41:00,
2013-05-25 19:46:00,49.6,49.5,29.72,ENE,60,0.0,3.0,99,-99.99,,,-99.99,0.0,meteohub,2013-05-25 23:46:00,
2013-05-25 19:51:00,49.6,49.5,29.72,ENE,60,0.0,3.0,99,-99.99,,,-99.99,0.0,meteohub,2013-05-25 23:51:00,
2013-05-25 19:56:00,49.6,49.5,29.72,East,98,0.0,3.0,99,-99.99,,,-99.99,0.0,meteohub,2013-05-25 23:56:00,
2013-05-25 20:01:00,49.5,49.3,29.73,NE,40,2.0,5.0,99,-99.99,,,-99.99,0.0,meteohub,2013-05-26 00:01:00,
2013-05-25 20:06:00,49.5,49.5,29.72,NE,53,0.0,5.0,100,-99.99,,,-99.99,0.0,meteohub,2013-05-26 00:06:00,
2013-05-25 20:11:00,49.5,49.5,29.72,ENE,65,0.0,5.0,100,-99.99,,,-99.99,0.0,meteohub,2013-05-26 00:11:00,
2013-05-25 20:16:00,49.5,49.5,29.72,East,89,0.0,3.0,100,-99.99,,,-99.99,0.0,meteohub,2013-05-26 00:16:00,
2013-05-25 20:21:00,49.5,49.5,29.72,East,88,1.0,4.0,100,-99.99,,,-99.99,0.0,meteohub,2013-05-26 00:21:00,
2013-05-25 20:26:00,49.5,49.5,29.72,ENE,74,0.0,4.0,100,-99.99,,,-99.99,0.0,meteohub,2013-05-26 00:26:00,
2013-05-25 20:31:00,49.5,49.5,29.72,ENE,71,0.0,3.0,100,-99.99,,,-99.99,0.0,meteohub,2013-05-26 00:31:00,
2013-05-25 20:36:00,49.5,49.5,29.73,ENE,71,2.0,4.0,100,-99.99,,,-99.99,0.0,meteohub,2013-05-26 00:36:00,
2013-05-25 20:41:00,49.3,49.3,29.73,ENE,78,1.0,4.0,100,-99.99,,,-99.99,0.0,meteohub,2013-05-26 00:41:00,
2013-05-25 20:46:00,49.3,49.1,29.73,East,82,0.0,4.0,99,-99.99,,,-99.99,0.0,meteohub,2013-05-26 00:46:00,
2013-05-25 20:51:00,49.3,49.1,29.73,East,80,0.0,2.0,99,-99.99,,,-99.99,0.0,meteohub,2013-05-26 00:51:00,
2013-05-25 20:56:00,49.3,49.1,29.74,East,80,0.0,5.0,99,-99.99,,,-99.99,0.0,meteohub,2013-05-26 00:56:00,
2013-05-25 21:01:00,49.3,49.1,29.74,East,80,0.0,5.0,99,-99.99,,,-99.99,0.0,meteohub,2013-05-26 01:01:00,
2013-05-25 21:06:00,49.3,49.1,29.74,East,80,0.0,2.0,99,-99.99,,,-99.99,0.0,meteohub,2013-05-26 01:06:00,
2013-05-25 21:11:00,49.1,48.9,29.73,East,80,0.0,1.0,99,-99.99,,,-99.99,0.0,meteohub,2013-05-26 01:11:00,
2013-05-25 21:16:00,49.1,48.9,29.74,ENE,69,0.0,1.0,99,-99.99,,,-99.99,0.0,meteohub,2013-05-26 01:16:00,
2013-05-25 21:21:00,48.9,48.9,29.74,ENE,65,0.0,2.0,100,-99.99,,,-99.99,0.0,meteohub,2013-05-26 01:21:00,
2013-05-25 21:26:00,48.9,48.9,29.74,ENE,65,0.0,2.0,100,-99.99,,,-99.99,0.0,meteohub,2013-05-26 01:26:00,
2013-05-25 21:31:00,48.9,48.9,29.73,East,88,0.0,3.0,100,-99.99,,,-99.99,0.0,meteohub,2013-05-26 01:31:00,
2013-05-25 21:36:00,48.7,48.7,29.73,ENE,62,0.0,3.0,100,-99.99,,,-99.99,0.0,meteohub,2013-05-26 01:36:00,
2013-05-25 21:41:00,48.7,48.7,29.73,ENE,62,1.0,3.0,100,-99.99,,,-99.99,0.0,meteohub,2013-05-26 01:41:00,
2013-05-25 21:46:00,48.7,48.7,29.73,East,92,1.0,3.0,100,-99.99,,,-99.99,0.0,meteohub,2013-05-26 01:46:00,
2013-05-25 21:51:00,48.7,48.7,29.73,ENE,57,0.0,4.0,100,-99.99,,,-99.99,0.0,meteohub,2013-05-26 01:51:00,
2013-05-25 21:56:00,48.7,48.7,29.73,NE,55,0.0,4.0,100,-99.99,,,-99.99,0.0,meteohub,2013-05-26 01:56:00,
2013-05-25 22:01:00,48.7,48.7,29.73,NE,53,0.0,4.0,100,-99.99,,,-99.99,0.0,meteohub,2013-05-26 02:01:00,
2013-05-25 22:06:00,48.7,48.6,29.73,ENE,71,2.0,4.0,99,-99.99,,,-99.99,0.0,meteohub,2013-05-26 02:06:00,
2013-05-25 22:11:00,48.7,48.6,29.73,ENE,76,0.0,4.0,99,-99.99,,,-99.99,0.0,meteohub,2013-05-26 02:11:00,
2013-05-25 22:16:00,48.6,48.4,29.73,ENE,76,0.0,3.0,99,-99.99,,,-99.99,0.0,meteohub,2013-05-26 02:16:00,
2013-05-25 22:21:00,48.6,48.4,29.73,ENE,60,1.0,3.0,99,-99.99,,,-99.99,0.0,meteohub,2013-05-26 02:21:00,
2013-05-25 22:26:00,48.6,48.4,29.73,East,101,2.0,3.0,99,-99.99,,,-99.99,0.0,meteohub,2013-05-26 02:26:00,
2013-05-25 22:31:00,48.6,48.4,29.73,ENE,71,0.0,3.0,99,-99.99,,,-99.99,0.0,meteohub,2013-05-26 02:31:00,
2013-05-25 22:36:00,48.4,48.2,29.73,ENE,63,1.0,3.0,99,-99.99,,,-99.99,0.0,meteohub,2013-05-26 02:36:00,
2013-05-25 22:41:00,48.4,48.2,29.73,NE,51,1.0,3.0,99,-99.99,,,-99.99,0.0,meteohub,2013-05-26 02:41:00,
2013-05-25 22:46:00,48.4,48.4,29.73,East,92,0.0,4.0,100,-99.99,,,-99.99,0.0,meteohub,2013-05-26 02:46:00,
2013-05-25 22:51:00,48.4,48.4,29.73,East,88,1.0,4.0,100,-99.99,,,-99.99,0.0,meteohub,2013-05-26 02:51:00,
2013-05-25 22:56:00,48.4,48.4,29.73,East,91,0.0,3.0,100,-99.99,,,-99.99,0.0,meteohub,2013-05-26 02:56:00,
2013-05-25 23:01:00,48.4,48.2,29.73,ENE,69,0.0,3.0,99,-99.99,,,-99.99,0.0,meteohub,2013-05-26 03:01:00,
2013-05-25 23:06:00,48.4,48.4,29.73,NE,47,0.0,4.0,100,-99.99,,,-99.99,0.0,meteohub,2013-05-26 03:06:00,
2013-05-25 23:11:00,48.4,48.4,29.73,East,95,0.0,5.0,100,-99.99,,,-99.99,0.0,meteohub,2013-05-26 03:11:00,
2013-05-25 23:16:00,48.4,48.4,29.73,ENE,73,1.0,5.0,100,-99.99,,,-99.99,0.0,meteohub,2013-05-26 03:16:00,
2013-05-25 23:21:00,48.4,48.2,29.73,ENE,73,0.0,5.0,99,-99.99,,,-99.99,0.0,meteohub,2013-05-26 03:21:00,
2013-05-25 23:26:00,48.4,48.2,29.73,East,89,2.0,2.0,99,-99.99,,,-99.99,0.0,meteohub,2013-05-26 03:26:00,
2013-05-25 23:31:00,48.4,48.2,29.73,East,88,0.0,2.0,99,-99.99,,,-99.99,0.0,meteohub,2013-05-26 03:31:00,
2013-05-25 23:36:00,48.6,48.4,29.72,East,92,0.0,2.0,99,-99.99,,,-99.99,0.0,meteohub,2013-05-26 03:36:00,
2013-05-25 23:41:00,48.6,48.4,29.72,East,92,0.0,3.0,99,-99.99,,,-99.99,0.0,meteohub,2013-05-26 03:41:00,
2013-05-25 23:46:00,48.6,48.6,29.72,East,92,0.0,3.0,100,-99.99,,,-99.99,0.0,meteohub,2013-05-26 03:46:00,
2013-05-25 23:51:00,48.6,48.6,29.72,ENE,78,0.0,3.0,100,-99.99,,,-99.99,0.0,meteohub,2013-05-26 03:51:00,
2013-05-25 23:56:00,48.6,48.6,29.72,East,90,2.0,3.0,100,-99.99,,,-99.99,0.0,meteohub,2013-05-26 03:56:00,